Regional Weather Roundup
Issued by NWS

Home | Current Version | Previous Version | Graphics & Text | Print | Product List | Glossary On
Versions: 1 2 3 4 5 6 7 8 9 10 11 12 13 14 15 16 17 18 19 20 21 22 23 24 25 26 27 28 29 30 31 32 33 34 35 36 37 38 39 40 41 42 43 44 45 46 47 48 49 50
781
ASUS44 KJAN 280310
RWRMS

MISSISSIPPI HOURLY WEATHER ROUNDUP
NATIONAL WEATHER SERVICE JACKSON MS
1000 PM CDT WED AUG 27 2014

NOTE: "FAIR: INDICATES FEW OR NO CLOUDS BELOW 12,000 FEET WITH NO
SIGNIFICANT WEATHER AND/OR OBSTRUCTIONS TO VISIBILITY.

MSZ001>002-007>008-010>013-018>021-025>028-034>036-280400-
NORTHWEST MISSISSIPPI

CITY           SKY/WX    TMP DP  RH WIND       PRES   REMARKS
CLARKSDALE     FAIR      75  72  88 CALM      30.03R
CLEVELAND      FAIR      75  73  91 CALM      30.01R
GREENWOOD      CLEAR     74  70  87 CALM      30.01R
GREENVILLE     CLEAR     75  69  81 CALM      30.01R
GRENADA        FAIR      72  68  88 CALM      30.03R
OLIVE BRANCH   CLEAR     79  72  78 CALM      30.05R
OXFORD         FAIR      72  66  83 CALM      30.06S
TUNICA         CLEAR     73  68  83 NE3       30.03S
$$

MSZ003>006-009-014>017-022>024-029>033-037>039-280400-
NORTHEAST MISSISSIPPI

CITY           SKY/WX    TMP DP  RH WIND       PRES   REMARKS
BELMONT        FAIR      74  70  89 CALM      30.05S
COLUMBUS AFB   PTCLDY    75  68  78 NW2       30.03R
CORINTH          N/A     73  70  88 CALM      30.05R
GOLDN TRIANGLE PTCLDY    75  64  69 CALM      30.04R
STARKVILLE     FAIR      72  66  83 CALM      30.03R
TUPELO         CLEAR     74  67  78 NE6       30.04R
$$

MSZ040-058-280400-
CENTRAL MISSISSIPPI

CITY           SKY/WX    TMP DP  RH WIND       PRES   REMARKS
JACKSON INTL   CLEAR     74  67  78 CALM      30.01R
JACKSON HAWKNS CLEAR     78  66  66 CALM      30.01R
MERIDIAN KEY   PTCLDY    73  64  73 CALM      30.02R
MERIDIAN NAS   PTCLDY    73  64  73 CALM      30.02R
RAYMOND        FAIR      72  66  83 CALM      30.01S
VICKSBURG      CLEAR     71  69  93 CALM      30.00R
$$

MSZ059>079-280400-
SOUTH MISSISSIPPI

CITY           SKY/WX    TMP DP  RH WIND       PRES   REMARKS
BROOKHAVEN     FAIR      75  70  83 CALM      30.03S
COLUMBIA       FAIR      77  73  88 CALM      30.00S
HATTIESBURG    CLEAR     81  72  74 SW3       30.01S
MCCOMB         PTCLDY    78  71  79 S3        30.02R
NATCHEZ        PTCLDY    77  72  83 CALM      30.00S
PINE BELT      CLEAR     75  66  73 CALM      30.03R
$$

MSZ080>082-280400-
COASTAL MISSISSIPPI

CITY           SKY/WX    TMP DP  RH WIND       PRES   REMARKS
BILOXI         PTCLDY    84  72  65 SE2       30.00R HX  90
PASCAGOULA     PTCLDY    76  73  91 CALM      30.00S
GULFPORT       PTCLDY    82  73  74 CALM      30.00R
$$



USA.gov is the U.S. government's official web portal to all federal, state and local government web resources and services.